Home   Weather   Oberlin   Past weeks

Flag for USA Past Weather in Oberlin, Ohio, USA — Yesterday and Last 2 Weeks

Now
29 °F

Overcast.


Feels Like: 25 °F
Forecast: 22 / 36 °F
Wind: 3 mph from Southwest

Location: Lorain County Regional Airport

Current Time: Jan 16, 2017 at 10:11:21 am

Latest Report: Jan 16, 2017 at 8:53 am


Visibility: 5 mi

Pressure: 30.37 "Hg

Humidity: 82%

Dew Point: 24 °F

Location of OberlinLocation

Past Weather in Oberlin — Graph

°F

Oberlin Temperature Yesterday

Maximum temperature yesterday: 32 °F (at 3:53 pm)
Minimum temperature yesterday: 20 °F (at 5:53 am)
Average temperature yesterday: 25 °F

High & Low Weather Summary for the Past Weeks

 TemperatureHumidityPressure
High60 °F (Jan 12, 1:38 am)97% (Jan 2, 9:13 pm)30.77 "Hg (Jan 2, 9:13 pm)
Low1 °F (Jan 6, 5:53 am)50% (Jan 9, 11:53 am)29.59 "Hg (Jan 3, 2:53 pm)
Average28 °F76%30.16 "Hg
* Reported Jan 1 8:53 am — Jan 16 8:53 am, Oberlin, Weather by CustomWeather, © 2017

Note: Actual official high and low records may vary slightly from our data, if they occured in-between our weather recording intervals... More about our weather records

Advertising

Oberlin Weather History for the Previous 24 Hours

Scroll right to see more
 ConditionsComfort  
Time TempWeatherWind HumidityBarometerVisibility
8:53 am
Mon, Jan 16
29 °FOvercast.3 mph82%30.37 "Hg5 mi
7:53 am27 °FOvercast.No wind81%30.36 "Hg5 mi
6:53 am26 °FIce fog.3 mph84%30.37 "Hg5 mi
5:53 am25 °FPassing clouds.No wind81%30.37 "Hg5 mi
4:53 am22 °FIce fog.5 mph89%30.37 "Hg4 mi
3:53 am21 °FIce fog.3 mph85%30.39 "Hg4 mi
2:53 am23 °FClear.No wind81%30.40 "Hg5 mi
1:53 am23 °FClear.3 mph81%30.38 "Hg6 mi
12:53 am23 °FClear.No wind81%30.38 "Hg6 mi
11:53 pm
Sun, Jan 15
25 °FClear.No wind81%30.39 "Hg7 mi
10:53 pm24 °FClear.3 mph84%30.41 "Hg7 mi
9:53 pm24 °FClear.No wind81%30.41 "Hg8 mi
8:53 pm25 °FClear.No wind81%30.41 "Hg8 mi
7:53 pm25 °FClear.No wind81%30.41 "Hg10 mi
6:53 pm28 °FClear.No wind72%30.41 "Hg10 mi
5:53 pm30 °FClear.No wind66%30.40 "Hg10 mi
4:53 pm31 °FSunny.No wind61%30.40 "Hg10 mi
3:53 pm32 °FSunny.3 mph61%30.41 "Hg10 mi
2:53 pm31 °FSunny.No wind67%30.41 "Hg10 mi
1:53 pm31 °FSunny.5 mph64%30.41 "Hg10 mi
12:53 pm30 °FSunny.No wind69%30.43 "Hg10 mi
11:53 am29 °FSunny.3 mph72%30.45 "Hg9 mi
10:53 am28 °FSunny.No wind81%30.47 "Hg7 mi
Weather by CustomWeather, © 2017

See weather overviewHow to use our weather pages